EC248A LEVD-LEAS

Flight info

Callsign EC248A
Flight time 1h 5m
Altitude 10000
Route DCT ZMR M30 XONDA
Aircraft BE58/L-SDFG/S

Departure

Time 2026-05-04 20:14
Airport Valladolid Airport (LEVD)

Arrival

Time 2026-05-04 21:20
Airport Asturias Airport (LEAS)
Time Latitude Longitude Altitude Speed Heading
2026-05-04 20:04 41.70645 -4.84719 2772 ft 0 kts 318°
2026-05-04 20:07 41.70650 -4.84716 2772 ft 2 kts 61°
2026-05-04 20:07 41.70643 -4.84658 2772 ft 8 kts 80°
2026-05-04 20:07 41.70694 -4.84584 2772 ft 10 kts 24°
2026-05-04 20:08 41.70747 -4.84627 2773 ft 7 kts 313°
2026-05-04 20:08 41.70780 -4.84668 2773 ft 5 kts 316°
2026-05-04 20:08 41.70819 -4.84718 2773 ft 8 kts 315°
2026-05-04 20:08 41.70875 -4.84795 2773 ft 11 kts 313°
2026-05-04 20:09 41.70961 -4.84850 2774 ft 13 kts 350°
2026-05-04 20:09 41.71066 -4.84863 2774 ft 13 kts 11°
2026-05-04 20:09 41.71148 -4.84770 2774 ft 15 kts 45°
2026-05-04 20:09 41.71231 -4.84656 2774 ft 16 kts 45°
2026-05-04 20:10 41.71320 -4.84541 2775 ft 16 kts 44°
2026-05-04 20:10 41.71404 -4.84424 2775 ft 14 kts 46°
2026-05-04 20:10 41.71471 -4.84333 2776 ft 11 kts 45°
2026-05-04 20:10 41.71531 -4.84250 2776 ft 12 kts 45°
2026-05-04 20:11 41.71610 -4.84143 2777 ft 16 kts 45°
2026-05-04 20:11 41.71681 -4.84009 2777 ft 15 kts 109°
2026-05-04 20:11 41.71665 -4.83984 2777 ft 0 kts 143°
2026-05-04 20:12 41.71662 -4.83982 2777 ft 2 kts 150°
2026-05-04 20:13 41.71625 -4.83959 2777 ft 9 kts 158°
2026-05-04 20:13 41.71550 -4.83968 2777 ft 9 kts 218°
2026-05-04 20:13 41.71546 -4.83973 2777 ft 0 kts 223°
2026-05-04 20:13 41.71381 -4.84202 2776 ft 74 kts 227°
2026-05-04 20:14 41.70861 -4.84800 3073 ft 87 kts 223°
2026-05-04 20:14 41.70309 -4.85542 3217 ft 112 kts 234°
2026-05-04 20:14 41.69735 -4.86388 3515 ft 114 kts 230°
2026-05-04 20:14 41.69164 -4.87210 3884 ft 111 kts 230°
2026-05-04 20:15 41.68553 -4.88183 3887 ft 135 kts 240°
2026-05-04 20:15 41.68190 -4.89419 4233 ft 129 kts 257°
2026-05-04 20:15 41.67869 -4.90599 4642 ft 120 kts 248°
2026-05-04 20:15 41.67544 -4.91701 5035 ft 112 kts 255°
2026-05-04 20:16 41.67294 -4.92736 5466 ft 103 kts 259°
2026-05-04 20:16 41.67075 -4.93703 5834 ft 103 kts 246°
2026-05-04 20:16 41.66647 -4.94612 6163 ft 104 kts 243°
2026-05-04 20:16 41.66313 -4.95509 6607 ft 93 kts 249°
2026-05-04 20:17 41.66050 -4.96401 6862 ft 102 kts 250°
2026-05-04 20:17 41.65644 -4.97355 7043 ft 114 kts 245°
2026-05-04 20:17 41.65316 -4.98582 6962 ft 142 kts 258°
2026-05-04 20:17 41.65089 -4.99943 7320 ft 135 kts 261°
2026-05-04 20:18 41.64990 -5.01231 7772 ft 124 kts 262°
2026-05-04 20:18 41.64704 -5.02370 8171 ft 117 kts 252°
2026-05-04 20:18 41.64600 -5.03486 8598 ft 109 kts 269°
2026-05-04 20:18 41.64498 -5.04537 9030 ft 101 kts 256°
2026-05-04 20:19 41.64351 -5.05585 9274 ft 110 kts 254°
2026-05-04 20:19 41.64131 -5.06705 9469 ft 118 kts 257°
2026-05-04 20:19 41.63955 -5.07903 9712 ft 120 kts 258°
2026-05-04 20:19 41.63772 -5.09177 9705 ft 140 kts 256°
2026-05-04 20:20 41.63607 -5.10620 9869 ft 142 kts 259°
2026-05-04 20:20 41.63463 -5.12060 10034 ft 143 kts 258°
2026-05-04 20:20 41.63172 -5.13554 10000 ft 156 kts 252°
2026-05-04 20:20 41.62837 -5.15102 9994 ft 163 kts 252°
2026-05-04 20:21 41.62500 -5.16693 9995 ft 162 kts 253°
2026-05-04 20:21 41.62164 -5.18309 9996 ft 166 kts 253°
2026-05-04 20:21 41.61487 -5.21633 9990 ft 171 kts 254°
2026-05-04 20:22 41.61145 -5.23332 9989 ft 173 kts 254°
2026-05-04 20:22 41.60799 -5.25060 9992 ft 175 kts 254°
2026-05-04 20:22 41.60452 -5.26800 9990 ft 176 kts 254°
2026-05-04 20:22 41.60110 -5.28523 9991 ft 177 kts 254°
2026-05-04 20:23 41.59764 -5.30266 9992 ft 176 kts 254°
2026-05-04 20:23 41.59420 -5.31998 9991 ft 176 kts 254°
2026-05-04 20:23 41.59075 -5.33735 9991 ft 176 kts 254°
2026-05-04 20:23 41.58903 -5.35504 9997 ft 176 kts 271°
2026-05-04 20:24 41.58842 -5.37273 9987 ft 175 kts 261°
2026-05-04 20:24 41.58586 -5.39024 9991 ft 175 kts 256°
2026-05-04 20:24 41.58250 -5.40732 9994 ft 174 kts 253°
2026-05-04 20:24 41.57883 -5.42434 10002 ft 174 kts 253°
2026-05-04 20:25 41.57501 -5.44155 10006 ft 174 kts 252°
2026-05-04 20:25 41.57124 -5.45836 9999 ft 175 kts 253°
2026-05-04 20:25 41.56742 -5.47530 9998 ft 175 kts 252°
2026-05-04 20:25 41.56356 -5.49240 10000 ft 175 kts 252°
2026-05-04 20:26 41.55969 -5.50954 10001 ft 175 kts 252°
2026-05-04 20:26 41.55584 -5.52654 10001 ft 175 kts 252°
2026-05-04 20:26 41.55202 -5.54341 9999 ft 175 kts 252°
2026-05-04 20:26 41.54813 -5.56057 9997 ft 175 kts 253°
2026-05-04 20:27 41.54426 -5.57766 9998 ft 175 kts 253°
2026-05-04 20:27 41.54036 -5.59484 9997 ft 174 kts 253°
2026-05-04 20:27 41.53647 -5.61200 9997 ft 174 kts 253°
2026-05-04 20:27 41.53679 -5.62932 9998 ft 178 kts 294°
2026-05-04 20:28 41.54743 -5.64075 10004 ft 187 kts 340°
2026-05-04 20:28 41.56153 -5.64445 10002 ft 190 kts 348°
2026-05-04 20:28 41.57585 -5.64729 10001 ft 190 kts 349°
2026-05-04 20:28 41.59028 -5.65000 10003 ft 191 kts 349°
2026-05-04 20:29 41.60393 -5.65249 10003 ft 191 kts 349°
2026-05-04 20:29 41.61797 -5.65501 10003 ft 191 kts 348°
2026-05-04 20:29 41.63203 -5.65752 10002 ft 191 kts 348°
2026-05-04 20:29 41.64597 -5.65999 10000 ft 191 kts 348°
2026-05-04 20:30 41.65968 -5.66242 9999 ft 191 kts 348°
2026-05-04 20:30 41.67369 -5.66489 9997 ft 191 kts 349°
2026-05-04 20:30 41.68760 -5.66735 9998 ft 190 kts 348°
2026-05-04 20:30 41.70142 -5.66979 9997 ft 190 kts 349°
2026-05-04 20:31 41.71550 -5.67228 9989 ft 191 kts 349°
2026-05-04 20:31 41.72939 -5.67473 9991 ft 191 kts 349°
2026-05-04 20:31 41.74350 -5.67722 9994 ft 191 kts 349°
2026-05-04 20:31 41.75742 -5.67968 9995 ft 190 kts 349°
2026-05-04 20:32 41.77146 -5.68216 9992 ft 190 kts 349°
2026-05-04 20:32 41.78532 -5.68460 9999 ft 190 kts 348°
2026-05-04 20:32 41.79927 -5.68707 10002 ft 190 kts 349°
2026-05-04 20:32 41.81300 -5.68950 10001 ft 190 kts 348°
2026-05-04 20:33 41.82687 -5.69196 9998 ft 190 kts 349°
2026-05-04 20:33 41.84080 -5.69443 9995 ft 189 kts 349°
2026-05-04 20:33 41.85482 -5.69691 9993 ft 190 kts 349°
2026-05-04 20:33 41.86864 -5.69937 9988 ft 190 kts 349°
2026-05-04 20:34 41.88253 -5.70183 9987 ft 190 kts 349°
2026-05-04 20:34 41.89641 -5.70430 9981 ft 190 kts 349°
2026-05-04 20:34 41.91038 -5.70677 9981 ft 190 kts 349°
2026-05-04 20:34 41.92437 -5.70926 9983 ft 189 kts 348°
2026-05-04 20:35 41.93826 -5.71173 9981 ft 189 kts 349°
2026-05-04 20:35 41.95230 -5.71422 9983 ft 190 kts 349°
2026-05-04 20:35 41.96616 -5.71669 9986 ft 189 kts 348°
2026-05-04 20:35 41.98015 -5.71917 9983 ft 189 kts 349°
2026-05-04 20:36 41.99399 -5.72164 9981 ft 189 kts 348°
2026-05-04 20:36 42.00805 -5.72414 9980 ft 189 kts 349°
2026-05-04 20:36 42.02201 -5.72663 9981 ft 189 kts 349°
2026-05-04 20:36 42.03593 -5.72912 9981 ft 189 kts 349°
2026-05-04 20:37 42.04980 -5.73159 9983 ft 189 kts 349°
2026-05-04 20:37 42.06381 -5.73409 9982 ft 190 kts 349°
2026-05-04 20:37 42.07772 -5.73657 9982 ft 190 kts 349°
2026-05-04 20:37 42.09171 -5.73907 9980 ft 189 kts 349°
2026-05-04 20:38 42.10533 -5.74150 9986 ft 189 kts 349°
2026-05-04 20:38 42.11888 -5.74391 9984 ft 188 kts 349°
2026-05-04 20:38 42.13197 -5.74626 9979 ft 187 kts 349°
2026-05-04 20:38 42.14505 -5.74859 9985 ft 186 kts 349°
2026-05-04 20:39 42.15802 -5.75091 9979 ft 185 kts 348°
2026-05-04 20:39 42.17104 -5.75325 9984 ft 184 kts 349°
2026-05-04 20:39 42.18387 -5.75554 9989 ft 184 kts 348°
2026-05-04 20:39 42.19684 -5.75787 9993 ft 184 kts 349°
2026-05-04 20:40 42.21002 -5.76023 9993 ft 184 kts 349°
2026-05-04 20:40 42.22302 -5.76257 9996 ft 184 kts 348°
2026-05-04 20:40 42.23597 -5.76489 10000 ft 184 kts 349°
2026-05-04 20:40 42.24907 -5.76724 10001 ft 185 kts 349°
2026-05-04 20:41 42.26234 -5.76962 9999 ft 185 kts 349°
2026-05-04 20:41 42.27526 -5.77194 10002 ft 185 kts 349°
2026-05-04 20:41 42.28832 -5.77428 10000 ft 186 kts 349°
2026-05-04 20:41 42.30144 -5.77664 10001 ft 185 kts 348°
2026-05-04 20:42 42.31459 -5.77901 10004 ft 185 kts 348°
2026-05-04 20:42 42.32759 -5.78135 10007 ft 185 kts 349°
2026-05-04 20:42 42.34052 -5.78367 10004 ft 185 kts 348°
2026-05-04 20:42 42.35353 -5.78602 10004 ft 185 kts 349°
2026-05-04 20:43 42.36660 -5.78837 10004 ft 185 kts 348°
2026-05-04 20:43 42.37963 -5.79072 10003 ft 185 kts 349°
2026-05-04 20:43 42.39290 -5.79311 10005 ft 185 kts 349°
2026-05-04 20:43 42.40581 -5.79544 10005 ft 186 kts 349°
2026-05-04 20:44 42.41908 -5.79783 10004 ft 186 kts 349°
2026-05-04 20:44 42.43209 -5.80018 10002 ft 186 kts 349°
2026-05-04 20:44 42.44521 -5.80255 10002 ft 186 kts 349°
2026-05-04 20:44 42.45840 -5.80493 9999 ft 185 kts 349°
2026-05-04 20:45 42.47166 -5.80733 9995 ft 185 kts 349°
2026-05-04 20:45 42.48447 -5.80964 9997 ft 185 kts 349°
2026-05-04 20:45 42.49748 -5.81200 9997 ft 184 kts 349°
2026-05-04 20:45 42.51051 -5.81435 9998 ft 184 kts 349°
2026-05-04 20:46 42.52354 -5.81671 9998 ft 184 kts 349°
2026-05-04 20:46 42.53652 -5.81906 9997 ft 185 kts 349°
2026-05-04 20:46 42.54961 -5.82144 9996 ft 185 kts 348°
2026-05-04 20:46 42.56256 -5.82378 9992 ft 186 kts 349°
2026-05-04 20:47 42.57580 -5.82619 9992 ft 186 kts 349°
2026-05-04 20:47 42.58897 -5.82858 9992 ft 186 kts 349°
2026-05-04 20:47 42.60204 -5.83095 9992 ft 185 kts 349°
2026-05-04 20:47 42.61512 -5.83332 9992 ft 185 kts 349°
2026-05-04 20:48 42.62794 -5.83565 9991 ft 184 kts 349°
2026-05-04 20:48 42.64082 -5.83799 9993 ft 184 kts 349°
2026-05-04 20:48 42.65384 -5.84035 9992 ft 184 kts 349°
2026-05-04 20:48 42.66683 -5.84272 9990 ft 183 kts 349°
2026-05-04 20:49 42.67979 -5.84508 9989 ft 183 kts 349°
2026-05-04 20:49 42.69251 -5.84739 9988 ft 183 kts 349°
2026-05-04 20:49 42.70549 -5.84976 9986 ft 184 kts 349°
2026-05-04 20:49 42.71863 -5.85215 9985 ft 184 kts 348°
2026-05-04 20:50 42.73163 -5.85452 9984 ft 185 kts 349°
2026-05-04 20:50 42.74447 -5.85686 9987 ft 185 kts 349°
2026-05-04 20:50 42.75748 -5.85923 9995 ft 185 kts 349°
2026-05-04 20:50 42.77065 -5.86163 10000 ft 185 kts 349°
2026-05-04 20:51 42.78366 -5.86401 9999 ft 185 kts 349°
2026-05-04 20:51 42.79654 -5.86636 9994 ft 185 kts 349°
2026-05-04 20:51 42.80948 -5.86872 9991 ft 185 kts 349°
2026-05-04 20:51 42.82274 -5.87115 9990 ft 185 kts 349°
2026-05-04 20:52 42.83562 -5.87350 9993 ft 184 kts 349°
2026-05-04 20:52 42.84845 -5.87584 9997 ft 184 kts 349°
2026-05-04 20:52 42.86133 -5.87819 9997 ft 184 kts 349°
2026-05-04 20:52 42.87441 -5.88043 9996 ft 184 kts 349°
2026-05-04 20:53 42.88720 -5.88259 9996 ft 184 kts 349°
2026-05-04 20:53 42.90002 -5.88475 9997 ft 184 kts 349°
2026-05-04 20:53 42.91313 -5.88696 9999 ft 184 kts 349°
2026-05-04 20:53 42.92635 -5.88920 10003 ft 184 kts 349°
2026-05-04 20:54 42.93937 -5.89140 10002 ft 184 kts 349°
2026-05-04 20:54 42.95239 -5.89360 10001 ft 184 kts 349°
2026-05-04 20:54 42.96520 -5.89577 10001 ft 184 kts 349°
2026-05-04 20:54 42.97828 -5.89798 9999 ft 183 kts 349°
2026-05-04 20:55 42.99125 -5.90017 10001 ft 183 kts 349°
2026-05-04 20:55 43.00407 -5.90234 10003 ft 182 kts 349°
2026-05-04 20:55 43.01694 -5.90451 10013 ft 182 kts 349°
2026-05-04 20:55 43.02992 -5.90672 10009 ft 182 kts 349°
2026-05-04 20:56 43.04255 -5.90887 10010 ft 182 kts 349°
2026-05-04 20:56 43.05539 -5.91105 10013 ft 182 kts 349°
2026-05-04 20:56 43.06810 -5.91332 10014 ft 183 kts 348°
2026-05-04 20:56 43.08112 -5.91580 9954 ft 185 kts 348°
2026-05-04 20:57 43.09397 -5.91826 9829 ft 184 kts 348°
2026-05-04 20:57 43.10669 -5.92069 9701 ft 183 kts 349°
2026-05-04 20:57 43.11930 -5.92310 9578 ft 182 kts 349°
2026-05-04 20:57 43.13192 -5.92550 9450 ft 181 kts 349°
2026-05-04 20:58 43.14436 -5.92788 9324 ft 181 kts 349°
2026-05-04 20:58 43.15678 -5.93024 9202 ft 181 kts 349°
2026-05-04 20:58 43.16918 -5.93261 9075 ft 181 kts 349°
2026-05-04 20:58 43.18171 -5.93499 9040 ft 178 kts 349°
2026-05-04 20:59 43.19403 -5.93735 9038 ft 182 kts 349°
2026-05-04 20:59 43.20674 -5.93977 9037 ft 184 kts 349°
2026-05-04 20:59 43.21963 -5.94223 9033 ft 186 kts 349°
2026-05-04 20:59 43.23245 -5.94468 9038 ft 186 kts 349°
2026-05-04 21:00 43.24530 -5.94714 9033 ft 187 kts 349°
2026-05-04 21:00 43.25805 -5.94958 9035 ft 185 kts 349°
2026-05-04 21:00 43.27094 -5.95204 9034 ft 184 kts 349°
2026-05-04 21:00 43.28361 -5.95447 9038 ft 184 kts 349°
2026-05-04 21:01 43.29628 -5.95690 9006 ft 187 kts 349°
2026-05-04 21:01 43.30918 -5.95938 8761 ft 187 kts 349°
2026-05-04 21:01 43.32204 -5.96184 8497 ft 183 kts 349°
2026-05-04 21:01 43.33441 -5.96420 8241 ft 178 kts 348°
2026-05-04 21:02 43.34672 -5.96657 7973 ft 176 kts 349°
2026-05-04 21:02 43.35878 -5.96888 7711 ft 176 kts 349°
2026-05-04 21:02 43.37081 -5.97119 7448 ft 176 kts 349°
2026-05-04 21:02 43.38305 -5.97355 7169 ft 176 kts 349°
2026-05-04 21:03 43.39511 -5.97587 6880 ft 175 kts 349°
2026-05-04 21:03 43.40708 -5.97817 6648 ft 174 kts 348°
2026-05-04 21:03 43.41905 -5.98043 6381 ft 174 kts 349°
2026-05-04 21:03 43.43114 -5.98277 6119 ft 173 kts 349°
2026-05-04 21:04 43.44297 -5.98507 5871 ft 172 kts 349°
2026-05-04 21:04 43.45471 -5.98735 5650 ft 170 kts 349°
2026-05-04 21:04 43.46656 -5.98962 5404 ft 170 kts 349°
2026-05-04 21:04 43.47821 -5.99187 5154 ft 169 kts 350°
2026-05-04 21:05 43.48979 -5.99410 4892 ft 168 kts 349°
2026-05-04 21:05 43.50132 -5.99632 4637 ft 167 kts 351°
2026-05-04 21:05 43.51297 -5.99856 4376 ft 166 kts 351°
2026-05-04 21:05 43.52430 -6.00075 4124 ft 165 kts 350°
2026-05-04 21:06 43.53553 -6.00292 3951 ft 159 kts 350°
2026-05-04 21:06 43.54619 -6.00496 3985 ft 150 kts 350°
2026-05-04 21:06 43.55544 -6.00998 3986 ft 143 kts 315°
2026-05-04 21:06 43.56028 -6.02180 3990 ft 140 kts 292°
2026-05-04 21:07 43.56679 -6.03104 3992 ft 138 kts 336°
2026-05-04 21:07 43.57641 -6.03059 3993 ft 143 kts 21°
2026-05-04 21:07 43.58317 -6.02061 3995 ft 148 kts 66°
2026-05-04 21:07 43.58337 -6.00663 3998 ft 149 kts 104°
2026-05-04 21:08 43.57999 -5.99289 3994 ft 151 kts 109°
2026-05-04 21:08 43.57637 -5.97908 3993 ft 155 kts 109°
2026-05-04 21:08 43.57274 -5.96495 3993 ft 159 kts 109°
2026-05-04 21:08 43.56894 -5.95026 3990 ft 162 kts 108°
2026-05-04 21:09 43.56513 -5.93569 3983 ft 164 kts 109°
2026-05-04 21:09 43.56112 -5.92042 3935 ft 168 kts 109°
2026-05-04 21:09 43.55711 -5.90516 3851 ft 172 kts 109°
2026-05-04 21:09 43.55293 -5.88955 3761 ft 175 kts 109°
2026-05-04 21:10 43.54865 -5.87379 3696 ft 175 kts 109°
2026-05-04 21:10 43.54433 -5.85805 3700 ft 173 kts 109°
2026-05-04 21:10 43.54007 -5.84281 3705 ft 169 kts 109°
2026-05-04 21:10 43.53585 -5.82780 3701 ft 167 kts 109°
2026-05-04 21:11 43.53175 -5.81301 3702 ft 165 kts 110°
2026-05-04 21:11 43.52771 -5.79802 3707 ft 165 kts 109°
2026-05-04 21:11 43.52373 -5.78328 3703 ft 164 kts 108°
2026-05-04 21:11 43.51971 -5.76860 3703 ft 165 kts 109°
2026-05-04 21:12 43.51562 -5.75369 3700 ft 164 kts 109°
2026-05-04 21:12 43.50948 -5.74084 3703 ft 163 kts 144°
2026-05-04 21:12 43.49898 -5.73684 3704 ft 158 kts 188°
2026-05-04 21:12 43.48965 -5.74359 3716 ft 150 kts 233°
2026-05-04 21:13 43.48671 -5.75661 3718 ft 144 kts 279°
2026-05-04 21:13 43.49128 -5.76854 3715 ft 141 kts 313°
2026-05-04 21:13 43.49746 -5.77908 3715 ft 142 kts 307°
2026-05-04 21:13 43.50242 -5.79049 3730 ft 136 kts 299°
2026-05-04 21:14 43.50639 -5.80179 3673 ft 121 kts 295°
2026-05-04 21:14 43.50943 -5.81186 3546 ft 111 kts 295°
2026-05-04 21:14 43.51219 -5.82178 3413 ft 110 kts 293°
2026-05-04 21:14 43.51482 -5.83181 3273 ft 113 kts 292°
2026-05-04 21:15 43.51743 -5.84212 3133 ft 115 kts 291°
2026-05-04 21:15 43.52001 -5.85261 2981 ft 116 kts 290°
2026-05-04 21:15 43.52257 -5.86315 2827 ft 115 kts 290°
2026-05-04 21:15 43.52507 -5.87352 2672 ft 114 kts 289°
2026-05-04 21:16 43.52752 -5.88373 2522 ft 112 kts 289°
2026-05-04 21:16 43.52996 -5.89390 2367 ft 112 kts 290°
2026-05-04 21:16 43.53245 -5.90428 2213 ft 113 kts 289°
2026-05-04 21:16 43.53492 -5.91459 2056 ft 114 kts 289°
2026-05-04 21:17 43.53739 -5.92490 1898 ft 113 kts 289°
2026-05-04 21:17 43.53986 -5.93523 1741 ft 112 kts 288°
2026-05-04 21:17 43.54227 -5.94534 1588 ft 112 kts 289°
2026-05-04 21:17 43.54470 -5.95549 1436 ft 112 kts 289°
2026-05-04 21:18 43.54713 -5.96565 1287 ft 112 kts 288°
2026-05-04 21:18 43.54954 -5.97575 1135 ft 109 kts 288°
2026-05-04 21:18 43.55210 -5.98548 988 ft 107 kts 290°
2026-05-04 21:18 43.55461 -5.99507 868 ft 105 kts 287°
2026-05-04 21:19 43.55667 -6.00486 749 ft 106 kts 283°
2026-05-04 21:19 43.55889 -6.01456 563 ft 108 kts 287°
2026-05-04 21:19 43.56109 -6.02438 434 ft 103 kts 285°
2026-05-04 21:19 43.56311 -6.03262 416 ft 69 kts 290°
2026-05-04 21:20 43.56434 -6.03796 410 ft 42 kts 288°
2026-05-04 21:20 43.56476 -6.03972 405 ft 21 kts 285°
2026-05-04 21:20 43.56493 -6.04153 402 ft 16 kts 268°
2026-05-04 21:20 43.56479 -6.04293 400 ft 15 kts 258°
2026-05-04 21:21 43.56410 -6.04356 399 ft 13 kts 146°
2026-05-04 21:21 43.56402 -6.04345 400 ft 0 kts 127°
2026-05-04 21:21 43.56400 -6.04341 400 ft 2 kts 122°
2026-05-04 21:21 43.56385 -6.04290 401 ft 8 kts 109°
2026-05-04 21:22 43.56363 -6.04191 403 ft 12 kts 106°
2026-05-04 21:22 43.56335 -6.04058 407 ft 15 kts 108°
2026-05-04 21:22 43.56296 -6.03906 411 ft 17 kts 109°
2026-05-04 21:22 43.56256 -6.03738 415 ft 19 kts 108°
2026-05-04 21:23 43.56212 -6.03556 417 ft 20 kts 108°
2026-05-04 21:23 43.56169 -6.03367 418 ft 20 kts 109°
2026-05-04 21:23 43.56119 -6.03226 419 ft 14 kts 151°
2026-05-04 21:23 43.56049 -6.03181 419 ft 9 kts 113°
2026-05-04 21:24 43.56025 -6.03089 419 ft 12 kts 109°
2026-05-04 21:24 43.55994 -6.02952 418 ft 15 kts 109°
2026-05-04 21:24 43.55969 -6.02848 418 ft 8 kts 110°
2026-05-04 21:24 43.55951 -6.02775 416 ft 6 kts 114°
2026-05-04 21:25 43.55916 -6.02768 417 ft 4 kts 196°
2026-05-04 21:25 43.55885 -6.02791 417 ft 5 kts 243°
2026-05-04 21:25 43.55886 -6.02814 418 ft 1 kts 284°
2026-05-04 21:25 43.55886 -6.02818 418 ft 0 kts 270°